Wind_Speed
8 8 8 8 8 8 8 9 10 10 10 10 10 9 9 8 7 7 7 7 8 8 8 8 8 8 9 10 11 12 12 12 12 13 13 14 15 15 16 16 16 16 16
9 9 9 9 8 8 9 9 10 11 11 11 11 10 10 8 8 9 9 9 9 9 9 9 8 9 9 10 11 12 13 13 13 14 14 15 15 16 16 17 18 17 17
9 9 9 9 9 9 10 11 11 11 11 12 12 11 11 9 9 9 10 10 10 10 9 9 9 10 10 11 11 12 14 13 14 14 15 16 16 16 17 18 18 18 19
9 9 9 9 9 10 11 11 11 11 12 12 12 12 11 10 10 10 10 10 10 10 10 10 11 11 11 11 12 12 13 13 14 15 16 17 18 18 18 19 19 20 20
9 9 9 9 10 11 11 11 12 12 12 12 13 13 12 11 12 11 11 10 10 10 10 11 12 12 12 12 13 13 14 15 15 16 16 17 19 19 20 20 20 21 22
10 10 10 10 11 11 12 12 13 13 13 13 13 13 13 12 12 12 11 12 11 11 11 12 13 13 13 13 13 13 14 15 16 17 17 18 19 20 20 21 20 21 22
11 11 11 11 12 12 13 13 13 14 14 14 14 14 14 13 13 12 12 13 13 13 13 13 13 13 13 13 14 14 14 15 15 16 17 18 19 20 20 21 21 21 21
12 12 11 12 13 13 14 14 14 14 14 15 15 15 15 14 13 13 13 14 14 14 14 13 13 13 14 14 15 15 15 15 15 16 17 18 19 19 20 20 21 21 22
12 12 13 13 13 14 14 15 15 15 15 15 15 16 15 14 14 14 14 14 15 15 15 15 14 14 14 15 15 15 15 15 16 16 16 17 18 18 19 20 21 21 22
12 13 13 13 13 14 14 15 15 16 16 16 16 16 15 15 15 14 15 15 15 15 15 15 16 16 16 16 16 16 16 17 16 17 17 17 18 19 20 21 21 22 22
13 13 13 14 14 14 15 15 16 17 17 17 17 17 16 15 15 15 16 16 16 16 16 17 17 17 17 17 18 19 18 18 18 18 18 18 18 19 20 21 22 23 23
14 14 14 15 15 15 16 16 17 17 17 17 17 17 17 16 16 17 17 17 16 17 18 18 18 18 19 19 19 20 19 19 18 18 19 19 20 20 20 21 22 23 24
14 15 16 16 17 17 17 18 18 18 18 18 18 18 18 18 18 18 18 18 18 18 19 19 19 19 19 20 20 20 20 20 20 20 20 21 21 21 22 22 22 23 24
16 16 17 17 18 18 18 18 18 19 19 19 18 19 19 19 19 19 19 19 19 19 20 21 21 21 20 21 21 21 20 21 21 21 21 22 22 21 22 23 23 24 25
17 18 18 18 18 19 19 19 19 19 19 19 19 19 20 20 20 20 20 20 20 20 21 21 21 21 22 22 22 21 21 22 22 22 22 22 23 23 23 23 24 25 25
18 18 18 19 19 19 19 19 19 20 20 20 20 20 20 20 20 20 21 21 21 21 21 22 22 23 22 23 22 22 22 22 22 22 22 22 23 23 24 24 24 25 26
19 19 19 19 19 20 20 20 20 20 21 21 20 21 21 22 22 22 22 22 22 22 22 23 23 22 22 22 22 21 21 21 21 22 22 23 23 23 24 24 25 26 26
19 19 20 20 20 20 20 20 21 21 21 21 22 22 23 23 23 22 23 23 23 24 24 23 23 23 23 23 23 22 22 22 22 23 24 24 23 23 24 25 25 25 26
19 20 20 20 21 22 21 21 22 22 21 22 22 22 23 23 23 23 23 24 24 24 24 24 24 23 23 23 23 23 23 23 23 24 24 25 25 25 25 25 26 26 26
20 21 21 21 21 22 21 21 22 22 22 22 23 23 23 24 24 24 24 24 24 25 25 24 24 23 23 24 24 24 24 24 24 25 25 25 25 25 25 25 26 26 26
21 21 22 22 22 22 22 23 23 23 23 23 23 24 24 24 25 25 25 24 25 25 25 25 24 24 25 25 25 25 25 25 25 25 25 25 25 25 25 25 26 26 26
22 22 23 23 23 23 24 24 24 24 24 25 24 24 25 25 25 25 25 25 25 25 25 25 25 25 25 26 26 26 26 26 26 26 26 26 26 27 26 26 26 27 26
24 24 24 24 25 25 25 24 24 25 25 25 25 25 25 25 25 25 26 26 25 25 25 25 25 25 25 26 26 26 26 26 26 26 26 26 26 27 27 27 26 26 26
25 25 25 25 24 24 24 25 25 24 25 25 25 25 25 25 25 26 26 26 26 25 26 25 25 25 26 26 26 26 26 26 26 26 26 27 27 27 27 26 26 26 25
27 27 26 26 25 26 26 26 26 25 25 24 24 24 24 25 25 26 26 25 25 26 26 25 26 26 26 27 27 26 26 26 26 26 27 27 27 27 27 26 26 25 25
28 28 27 27 26 26 27 27 26 25 24 24 24 25 25 25 25 25 25 25 25 26 26 26 26 26 26 27 26 26 26 26 25 25 26 26 26 26 26 25 24 24 24
Wind_Direction
326 325 327 330 332 336 340 340 335 336 338 338 336 335 331 328 325 318 311 313 313 308 304 299 293 287 280 278 274 269 269 269 266 266 265 261 255 255 259 259 257 255 257
319 320 323 324 327 328 333 332 334 336 338 337 337 334 331 327 325 325 318 310 311 309 307 302 298 291 286 286 282 275 271 269 268 267 267 263 258 259 261 261 258 259 259
320 317 319 319 325 328 329 326 328 330 331 332 334 332 329 321 317 317 316 315 310 309 308 304 300 297 291 289 286 280 274 272 271 270 268 262 259 259 261 262 264 263 261
324 323 318 315 317 323 325 325 325 327 327 326 328 328 327 323 320 317 314 314 313 311 310 306 301 298 295 292 289 285 280 275 271 268 265 262 260 259 259 262 266 266 265
324 323 321 316 317 320 321 323 325 325 327 325 323 325 323 320 321 317 314 313 312 311 309 308 307 303 299 295 292 289 284 279 275 272 267 264 262 261 262 265 266 266 266
319 319 320 319 320 321 319 318 320 322 323 324 322 321 321 320 318 316 312 311 308 306 306 307 309 308 305 301 297 294 289 284 280 276 272 269 266 265 264 264 267 266 266
314 316 317 316 316 316 316 318 319 320 319 323 323 321 319 319 316 314 313 310 306 304 305 306 307 307 307 307 304 301 297 291 284 278 275 272 270 266 265 266 266 266 267
313 313 311 312 313 313 311 313 317 319 319 320 323 322 320 317 315 315 315 313 310 305 305 303 303 306 306 305 304 302 301 297 290 284 279 275 273 267 265 267 267 268 269
308 307 307 308 309 311 311 312 312 314 317 319 321 321 320 317 314 313 313 313 311 308 305 305 304 303 304 303 302 301 299 298 295 292 287 282 278 273 270 269 268 269 270
308 307 306 306 307 308 309 311 311 310 311 315 316 317 315 316 314 312 310 309 307 306 305 307 307 304 303 304 302 300 297 298 296 295 292 287 283 279 277 274 272 271 270
305 305 303 304 305 305 306 308 308 308 309 311 312 312 312 311 310 309 310 308 304 304 303 303 304 303 302 302 301 299 297 296 295 293 291 288 286 283 281 279 277 275 272
302 301 302 304 303 303 305 306 306 306 307 308 308 308 308 307 305 307 308 308 305 302 302 301 299 298 297 297 299 299 297 294 292 293 292 289 287 285 283 283 280 278 276
302 301 300 302 302 302 304 305 304 304 304 305 306 307 306 305 305 306 306 304 303 302 302 301 299 298 298 298 297 296 295 292 291 290 289 289 288 288 286 285 284 283 282
301 301 300 300 301 302 303 302 303 303 304 304 306 306 305 305 305 305 305 305 303 303 303 302 300 301 300 298 296 293 293 291 290 290 288 288 288 288 288 287 285 285 285
298 298 299 299 298 300 301 300 301 303 304 304 304 305 304 305 306 307 307 307 305 302 304 304 302 301 301 300 298 293 292 292 292 291 289 288 287 287 288 288 287 286 287
297 298 298 297 297 299 299 299 299 301 302 301 301 303 304 306 306 306 306 308 307 307 307 308 305 301 301 302 300 299 298 293 291 290 290 289 287 286 287 288 288 288 287
294 297 296 295 296 298 298 298 299 300 300 300 302 303 304 304 304 303 303 304 306 305 305 305 305 304 303 303 304 301 300 296 293 292 292 292 290 288 288 287 287 289 288
290 294 297 296 298 299 299 299 301 302 303 303 304 305 305 304 303 302 300 300 303 305 304 302 304 304 304 303 304 302 300 298 296 295 294 293 291 289 289 290 291 290 288
288 293 297 297 297 298 298 299 300 302 304 304 305 306 306 304 302 300 300 300 301 303 303 303 302 303 302 302 301 301 301 300 297 295 294 294 294 293 292 292 293 292 290
289 293 295 297 298 298 298 298 300 301 303 304 304 305 304 303 302 301 300 300 300 302 302 301 303 304 303 302 302 301 299 299 299 297 296 295 294 294 294 294 294 294 293
289 292 293 295 296 298 298 298 299 300 302 302 304 304 304 302 301 300 300 300 300 301 301 300 301 301 301 300 300 300 298 297 298 298 297 296 295 295 295 295 295 294 293
289 291 294 295 296 296 296 297 298 299 300 300 302 304 303 303 302 301 301 301 301 301 301 302 302 302 302 301 300 299 298 298 297 297 297 297 296 296 297 296 295 293 294
287 290 292 294 295 295 297 299 300 300 300 300 300 302 302 302 302 302 303 302 302 303 302 302 302 302 303 302 301 300 298 298 297 297 297 297 297 297 296 296 294 293 293
286 290 293 295 297 298 298 300 300 300 301 301 301 301 301 301 302 301 300 301 302 303 303 303 304 303 303 303 303 303 301 298 296 296 296 296 297 298 297 296 294 293 292
285 289 291 292 294 297 298 299 300 300 300 301 303 302 302 301 302 301 301 302 304 305 305 304 304 303 304 305 305 304 303 300 299 298 298 297 297 298 300 298 296 295 293
284 287 288 289 291 295 296 298 298 299 298 298 300 301 301 301 301 301 301 302 303 304 304 305 304 303 303 304 304 304 303 302 301 299 299 298 299 299 301 300 297 296 294
Height
5903 5901 5899 5898 5896 5895 5893 5891 5890 5888 5886 5884 5882 5880 5878 5876 5875 5874 5872 5871 5870 5869 5868 5867 5865 5864 5863 5862 5862 5861 5861 5861 5861 5861 5861 5861 5861 5862 5862 5863 5863 5863 5863
5902 5900 5899 5897 5895 5894 5892 5891 5889 5887 5885 5883 5881 5879 5877 5875 5873 5872 5871 5870 5868 5867 5866 5865 5863 5862 5861 5860 5859 5858 5858 5858 5857 5858 5858 5858 5859 5858 5858 5858 5859 5859 5859
5901 5899 5898 5896 5894 5893 5891 5889 5888 5886 5884 5882 5879 5877 5875 5873 5872 5870 5869 5868 5866 5865 5864 5862 5861 5860 5859 5857 5856 5855 5855 5854 5854 5854 5854 5854 5855 5854 5854 5854 5854 5854 5855
5900 5898 5896 5895 5893 5892 5890 5888 5886 5884 5882 5880 5878 5876 5874 5872 5870 5869 5867 5866 5864 5863 5862 5860 5859 5857 5856 5855 5853 5852 5851 5851 5850 5850 5850 5850 5850 5850 5850 5850 5850 5850 5850
5899 5897 5896 5894 5892 5890 5889 5887 5885 5883 5881 5878 5876 5874 5872 5870 5868 5866 5865 5863 5862 5860 5859 5857 5856 5854 5853 5851 5850 5849 5848 5847 5846 5845 5845 5845 5845 5845 5846 5846 5845 5845 5845
5898 5896 5895 5893 5891 5889 5887 5885 5883 5881 5879 5877 5874 5872 5870 5868 5866 5864 5863 5861 5859 5858 5856 5855 5853 5851 5850 5848 5846 5845 5843 5842 5841 5841 5840 5840 5840 5840 5840 5840 5840 5840 5839
5896 5895 5893 5891 5889 5887 5885 5883 5881 5879 5877 5874 5872 5870 5868 5866 5864 5862 5860 5858 5857 5855 5853 5852 5850 5848 5846 5845 5843 5841 5839 5838 5837 5836 5836 5835 5835 5835 5835 5835 5834 5834 5834
5894 5893 5891 5889 5887 5885 5883 5881 5879 5876 5874 5872 5870 5868 5865 5863 5861 5859 5858 5856 5854 5852 5850 5848 5847 5845 5843 5841 5839 5838 5836 5834 5833 5832 5831 5830 5830 5829 5829 5829 5829 5829 5829
5892 5890 5889 5887 5885 5882 5880 5878 5876 5874 5872 5869 5867 5865 5863 5861 5859 5857 5855 5853 5851 5849 5847 5845 5843 5841 5839 5837 5836 5834 5832 5831 5829 5828 5826 5825 5825 5824 5824 5823 5823 5823 5823
5890 5888 5886 5884 5882 5880 5878 5876 5873 5871 5869 5867 5864 5862 5860 5858 5856 5854 5852 5850 5848 5846 5844 5842 5840 5838 5836 5834 5832 5830 5828 5827 5825 5823 5822 5821 5820 5819 5818 5818 5818 5817 5817
5887 5885 5883 5882 5880 5878 5875 5873 5871 5868 5866 5863 5861 5859 5857 5854 5852 5850 5848 5846 5844 5842 5840 5838 5836 5834 5832 5830 5828 5826 5824 5823 5821 5819 5817 5816 5815 5814 5813 5813 5812 5811 5811
5884 5882 5881 5879 5877 5875 5872 5870 5868 5865 5863 5860 5858 5855 5853 5851 5849 5847 5844 5842 5840 5838 5836 5833 5831 5829 5827 5825 5823 5821 5819 5818 5816 5814 5813 5811 5810 5809 5808 5807 5806 5805 5804
5881 5879 5877 5876 5873 5871 5869 5866 5864 5862 5859 5856 5854 5852 5850 5847 5845 5843 5840 5838 5836 5833 5831 5829 5827 5825 5822 5820 5818 5816 5814 5813 5811 5809 5807 5806 5805 5803 5802 5801 5799 5798 5797
5878 5876 5874 5872 5870 5868 5865 5863 5860 5858 5855 5853 5850 5848 5846 5843 5841 5838 5836 5833 5831 5829 5827 5824 5822 5820 5818 5815 5813 5811 5809 5807 5805 5803 5802 5800 5799 5797 5796 5794 5793 5792 5790
5874 5872 5870 5868 5866 5864 5861 5859 5856 5854 5851 5849 5846 5844 5842 5839 5836 5834 5831 5829 5827 5824 5822 5819 5817 5815 5813 5810 5808 5805 5803 5802 5800 5798 5796 5794 5793 5791 5790 5788 5786 5785 5783
5869 5867 5866 5864 5862 5860 5857 5855 5852 5850 5847 5845 5842 5840 5837 5834 5832 5829 5827 5824 5822 5820 5817 5815 5812 5810 5808 5805 5802 5800 5798 5796 5794 5791 5789 5788 5786 5785 5783 5781 5780 5778 5776
5865 5863 5861 5859 5857 5855 5853 5850 5848 5845 5842 5840 5838 5835 5832 5829 5827 5824 5822 5820 5817 5815 5812 5810 5807 5804 5802 5800 5797 5794 5792 5789 5787 5785 5783 5781 5779 5778 5776 5774 5773 5771 5768
5860 5859 5857 5855 5852 5850 5848 5845 5843 5840 5838 5835 5832 5830 5827 5824 5821 5819 5817 5814 5812 5809 5807 5804 5802 5799 5796 5794 5791 5789 5786 5784 5781 5779 5777 5774 5772 5770 5769 5767 5765 5763 5761
5856 5854 5852 5850 5847 5845 5843 5840 5838 5835 5833 5830 5827 5825 5822 5819 5816 5813 5811 5809 5806 5804 5801 5799 5796 5793 5790 5788 5785 5783 5780 5777 5775 5772 5770 5768 5765 5763 5761 5759 5757 5754 5752
5851 5849 5847 5845 5842 5840 5838 5835 5833 5830 5828 5825 5822 5819 5816 5813 5811 5808 5805 5803 5800 5798 5795 5793 5790 5787 5785 5782 5779 5776 5774 5771 5768 5766 5763 5761 5759 5756 5754 5751 5749 5746 5744
5845 5843 5841 5839 5837 5834 5832 5830 5827 5825 5822 5819 5816 5813 5811 5808 5805 5802 5799 5797 5794 5792 5789 5787 5784 5781 5778 5775 5773 5770 5767 5764 5762 5759 5756 5754 5751 5749 5746 5743 5741 5739 5736
5839 5837 5835 5833 5831 5829 5827 5824 5822 5819 5816 5813 5811 5808 5805 5802 5799 5796 5793 5790 5788 5785 5782 5780 5777 5774 5771 5768 5765 5763 5760 5757 5754 5752 5749 5746 5744 5741 5738 5735 5733 5731 5728
5833 5831 5829 5827 5825 5823 5820 5818 5815 5812 5810 5807 5804 5801 5798 5796 5793 5790 5787 5784 5781 5778 5775 5772 5770 5767 5764 5761 5758 5755 5752 5750 5747 5744 5741 5738 5736 5733 5730 5728 5725 5723 5720
5826 5824 5822 5820 5818 5816 5813 5811 5808 5805 5803 5800 5797 5794 5792 5789 5786 5783 5780 5777 5774 5771 5768 5765 5762 5759 5756 5753 5750 5747 5744 5742 5739 5736 5733 5731 5728 5725 5722 5720 5717 5715 5712
5819 5817 5815 5813 5811 5809 5807 5804 5801 5798 5796 5794 5791 5788 5785 5783 5780 5777 5774 5771 5768 5764 5761 5758 5755 5752 5749 5746 5743 5740 5737 5734 5731 5728 5725 5723 5720 5717 5714 5711 5708 5706 5704
5811 5809 5808 5806 5804 5801 5799 5797 5794 5792 5789 5787 5785 5782 5779 5776 5773 5770 5767 5764 5761 5758 5755 5751 5748 5745 5742 5739 5736 5733 5729 5726 5723 5720 5717 5715 5712 5709 5706 5703 5700 5698 5695